Tracking 18852 objects as of 23-Nov-2017
HD Live streaming from Space Station
objects crossing your sky now

COSMOS 1693

Track COSMOS 1693 now!
10-day predictions
COSMOS 1693 is classified as:


NORAD ID: 16141
Int'l Code: 1985-094D
Perigee: 1,401.2 km
Apogee: 1,423.2 km
Inclination: 82.6 °
Period: 113.9 minutes
Semi major axis: 7783 km
RCS: 0.2624 m2 (medium)
Launch date: October 9, 1985
Source: Commonwealth of Independent States (former USSR) (CIS)
Launch site: PLESETSK MISSILE AND SPACE COMPLEX (PKMTR)
aabbcc
Your satellite tracking list
Your tracking list is empty




NASA's NSSDC Master Catalog

Two Line Element Set (TLE):
1 16141U 85094D   17326.84925066  .00000004  00000-0 -34676-4 0  9993
2 16141  82.6102  87.5145 0014103 318.5645 161.2316 12.64347713482568
Source of the keplerian elements: AFSPC